Terug naar catalogus

THORAD AGENA D DEB

ActiefSSO
NORAD 4914·DEBRIS·🇺🇸 United States

Gelanceerd Apr 8, 1970 vanaf Vandenberg Space Force Base

Loading…

Volgende Passages (komende 24 uur)

TLE

VersSource: Space-Track

Epoch: Sep 14, 2026, 08:39 UTC

1 04914U 70025FL  26257.36059087  .00002779  00000-0  30921-2 0  9994
2 04914  99.4428 201.8562 0080388 342.6850 170.3391 13.70932285786998

Volg THORAD AGENA D DEB in realtime met AllMySat

Download on the App Store